OBJECT F, 57429

Orbit data source: Space-Track

You're viewing an Uncataloged Satellite

Recently launched and/or uncataloged satellites may have evolving metadata. Metadata may include but not limited to: Owner, Maufacturer, Bus, Motor, and Mission.

OBJECT F, 57429 is a satellite owned by Yinhe (CN) in SSO that was launched on Sun, 23 Jul 2023 UTC via a CHANG ZHENG 2D launch vehicle from the Taiyaun Space Center, China (TSC). Unknown objects in Earth's orbit typically refer to objects detected orbiting the Earth but have not yet been identified or cataloged. These objects could be anything from previously untracked satellites, spent rocket stages, debris from satellite collisions, or even natural meteoroids temporarily captured by Earth's gravity.

Loading next visibility...
Identifier
57429, 2023-104F
Orbit
SSO
Country
Flag of CNCN / PRC
Related business
None
Manufacturer
Yinhe
Mission
Spacecraft
Bus & Motor
Unknown
Mass
~300 kg wet, ~300 kg dry
Launch date (UTC)
2023-07-23 (2 years ago)
Launch vehicle
CHANG ZHENG 2D
Launch site
Taiyaun Space Center, China (TSC)
Object type
Unknown
Shape & HBR
Unknown
Radar Cross Section
Medium (>0.1 m² and <1 m²)

Expand to show TLE details & history
Last TLE update: 7 hours ago

TLE from 7 hours ago
0 OBJECT F
1 57429U 23104F   25261.31806484  .00013437  00000-0  34183-3 0  9997
2 57429  97.2958 329.1579 0023338 310.3972  49.5237 15.39434542120451
Epoch: 2025-09-18T07:38Z
TLE epoch observation values (Epoch: 2025-09-18T07:38:00.802Z)
Latitude
0.00001°
Longitude
-142.82683°
Altitude
440.578 km
Speed
7.653 km/s
True Right ascension
21h 56m 37s
True Declination
0° 00' 00"
Sunlit
Object was in full shadow at epoch
Visualization orbit readout
Latitude
Unknown
Longitude
Unknown
Altitude
Unknown
Speed
Unknown
Apparent Right ascension
Unknown
Apparent Declination
Unknown
Sunlit
N/A
Visualization observer readout
Local Sidereal Time
07:54:00
Azimuth
Unknown
Elevation
Unknown
Doppler factor
Unknown
Orbital elements
Apogee altitude
460.639 km
Perigee altitude
428.792 km
Semi-major axis
6,822.853 km
Eccentricity
0.00233
Inclination
97.2958°
RAAN
329.1579°
Arg. of periapsis
310.3972°
True anomaly
49.72752°
Mean anomaly
49.5237°
Eccentric anomaly
49.62557°
Mean motion
3.85118 °/min
Orbital period
93.48 mins
BSTAR
0.00034183
Loading maneuver chart data...
Computing Atmospheric mass density...
Loading historical data...
Loading historical data...
Loading historical data...
Loading historical data...
Loading historical data...
Loading historical data...
Loading historical data...
Other satellites on launch #104 in the year 2023 (2023-07-23 UTC)

Documentation

Showing up to 5 results
|